Regional Weather Roundup
Issued by NWS

Home | Current Version | Previous Version | Graphics & Text | Print | Product List | Glossary On
Versions: 1 2 3 4 5 6 7 8 9 10 11 12 13 14 15 16 17 18 19 20 21 22 23 24 25 26 27 28 29 30 31 32 33 34 35 36 37 38 39 40 41 42 43 44 45 46 47 48 49 50
000
ASUS43 KOAX 091602
RWRNE

WEATHER ROUNDUP FOR NEBRASKA
NATIONAL WEATHER SERVICE OMAHA NE
1100 AM CDT WED JUL 09 2014

NOTES: SATELLITE DATA IS BEING USED TO AUGMENT CLOUD COVER ABOVE
       12000 FEET.
       "FAIR" INDICATES FEW OR NO CLOUDS BELOW 12,000 FEET WITH NO
       SIGNIFICANT WEATHER AND/OR OBSTRUCTIONS TO VISIBILITY.

  * THESE STATIONS DO NOT REPORT WEATHER SUCH AS RAIN...SNOW OR FOG.

NEZ001>004-019>022-054>056-091700-
NEBRASKA PANHANDLE

CITY           SKY/WX    TMP DP  RH WIND       PRES   REMARKS
SCOTTSBLUFF    CLOUDY    67  61  81 NE8       30.03S
ALLIANCE       CLOUDY    72  56  57 SE22      30.02F
CHADRON        MOSUNNY   74  56  53 CALM      30.01F
KIMBALL        PTSUNNY   76  51  41 E22       30.09F
SIDNEY         CLOUDY    68  59  73 NE7       30.11F
$$

NEZ057>060-069>072-079>082-091700-
SOUTHWEST NEBRASKA

CITY           SKY/WX    TMP DP  RH WIND       PRES   REMARKS
NORTH PLATTE   SUNNY     78  57  48 SE10      30.08F
IMPERIAL       MOSUNNY   81  54  39 S18G24    30.08S
LEXINGTON      SUNNY     80  57  44 S20       30.08F
MCCOOK         SUNNY     80  59  48 S13G23    30.07F
OGALLALA       PTSUNNY   77  56  48 S7        30.11R
$$

NEZ005>010-023>029-035>040-094-091700-
NORTH CENTRAL NEBRASKA

CITY           SKY/WX    TMP DP  RH WIND       PRES   REMARKS
VALENTINE      CLOUDY    69  60  73 E3        30.10R
AINSWORTH      CLOUDY    72  55  55 SE8       30.09F
BROKEN BOW     PTSUNNY   75  54  47 S14       30.09F
O`NEILL        MOSUNNY   78  50  37 S6        30.09S
ORD            SUNNY     76  56  49 S9        30.08F
THEDFORD       MOSUNNY   74  55  51 SE15      30.10F
$$

NEZ041-046>049-061>064-073>077-083>087-091700-
SOUTH CENTRAL NEBRASKA

CITY           SKY/WX    TMP DP  RH WIND       PRES   REMARKS
GRAND ISLAND   PTSUNNY   77  59  53 S9        30.10F
AURORA         PTSUNNY   76  59  56 S8        30.11R
HASTINGS       PTSUNNY   75  55  49 SE7       30.11S
HEBRON         SUNNY     79  57  45 SE5       30.09F
HOLDREGE       SUNNY     78  55  44 SE15G22   30.09F
KEARNEY *      MOSUNNY   75  57  53 SE12      30.11F
YORK           MOSUNNY   75  59  57 S7        30.10F
$$

NEZ011>018-030>034-042>045-091700-
NORTHEAST NEBRASKA

CITY           SKY/WX    TMP DP  RH WIND       PRES   REMARKS
NORFOLK        MOSUNNY   77  58  51 S9        30.08S
ALBION         MOSUNNY   76  56  49 S7        30.09F
BLAIR          SUNNY     73  60  62 SW5       30.09
FREMONT        SUNNY     77  60  56 S3        30.08F
TEKAMAH        SUNNY     76  59  55 S7        30.07F
WAYNE          SUNNY     76  60  57 SW7       30.08S
$$

NEZ050>053-065>068-078-088>093-091700-
SOUTHEAST NEBRASKA

CITY           SKY/WX    TMP DP  RH WIND       PRES   REMARKS
LINCOLN        MOSUNNY   78  60  53 S6        30.09F
OMAHA EPPLEY   SUNNY     76  56  49 S6        30.08S
BEATRICE       MOSUNNY   75  58  55 SE6       30.10F
FALLS CITY     SUNNY     76  64  66 E3        30.08F
NEBRASKA CITY  SUNNY     74  62  65 SE3       30.10S
PLATTSMOUTH    SUNNY     75  60  57 S5        30.10R
$$

NEZ044-045-051>053-067-091700-
OMAHA AREA

CITY           SKY/WX    TMP DP  RH WIND       PRES   REMARKS
OMAHA EPPLEY   SUNNY     76  56  49 S6        30.08S
BLAIR          SUNNY     73  60  62 SW5       30.09
FREMONT        SUNNY     77  60  56 S3        30.08F
MILLARD        SUNNY     76  60  58 NE5       30.08S
OFFUTT AFB     SUNNY     75  64  69 SE5       30.08F
PLATTSMOUTH    SUNNY     75  60  57 S5        30.10R
WAHOO          FAIR      77  61  56 S5        30.08F
$$



USA.gov is the U.S. government's official web portal to all federal, state and local government web resources and services.